Regional Weather Roundup
Issued by NWS State College, PA

Home | Current Version | Previous Version | Text Only | Print | Product List | Glossary Off
Versions: 1 2 3 4 5 6 7 8 9 10 11 12 13 14 15 16 17 18 19 20 21 22 23 24 25 26 27 28 29 30 31 32 33 34 35 36 37 38 39 40 41 42 43 44 45 46 47 48 49 50

000
ASUS41 KCTP 281503
RWRCTP

REGIONAL WEATHER ROUNDUP
NATIONAL WEATHER SERVICE STATE COLLEGE PA
1100 AM EDT THU MAY 28 2015

Note: "fair" indicates few or no clouds below 12,000 feet with no
significant weather and/or obstructions to visibility.

* = STATION THAT DOES NOT REPORT PRECIPITATION /E.G. RAIN...SNOW...ETC/
    THUNDER OR FOG.

PAZ002>004-007>009-013>016-020>023-029>032-281600-
WESTERN PENNSYLVANIA

CITY           SKY/WX    TMP DP  RH WIND       PRES   REMARKS
ERIE           SUNNY     67  54  63 NW6       30.26S
MEADVILLE      MOSUNNY   68  53  58 VRB5      30.27F
FRANKLIN*      MOSUNNY   68  54  60 NW3       30.29R
NEW CASTLE     FAIR      72  62  70 CALM      30.27S
BEAVER COUNTY  MOSUNNY   68  61  77 CALM      30.27R
BUTLER*        PTSUNNY   70  61  73 NE5       30.29R
PITTSBURGH INT CLOUDY    73  59  61 N6        30.26R
PITTSBURGH     MOSUNNY   73  57  57 N6        30.25S
INDIANA*       MOSUNNY   72  61  68 NW9       30.29S
LATROBE        PTSUNNY   72  63  73 CALM      30.27S
WASHINGTON CO* PTSUNNY   73  63  68 NE6       30.27S
$$

PAZ004>006-010>012-017>019-024>028-033>037-041-042-045-046-049>053-281600-
CENTRAL PENNSYLVANIA

CITY           SKY/WX    TMP DP  RH WIND       PRES   REMARKS
BRADFORD       MOSUNNY   68  52  56 NW14      30.28R
DUBOIS         MOSUNNY   71  56  58 N10       30.27R
CLEARFIELD     MOSUNNY   74  55  51 N9        30.26S
JOHNSTOWN      MOSUNNY   71  59  65 NW13      30.28R
ALTOONA        MOSUNNY   75  59  57 NW12      30.25R
STATE COLLEGE  PTSUNNY   75  59  57 NW9       30.24S
WILLIAMSPORT   MOSUNNY   78  58  49 W13G18    30.18S
SELINSGROVE    MOSUNNY   79  62  56 W5        30.20R
FT INDIANTOWN  PTSUNNY   78  65  64 VRB7      30.18S
CAPITAL CITY   MOSUNNY   80  65  59 W8        30.18S
HARRISBURG     PTSUNNY   80  66  62 W7        30.17S
YORK           MOSUNNY   80  66  62 CALM      30.19S
$$

PAZ038>040-043-044-047-048-054-055-060>062-067>071-281600-
EASTERN PENNSYLVANIA

CITY           SKY/WX    TMP DP  RH WIND       PRES   REMARKS
SCRANTON       CLOUDY    77  63  61 SW9       30.17S
MOUNT POCONO   MOSUNNY   73  61  65 W10       30.21S
ALLENTOWN      MOSUNNY   80  68  66 W7        30.17S
QUAKERTOWN*    MOSUNNY   77  68  73 SW5       30.19S
READING        MOSUNNY   81  67  62 W7        30.17R
LANCASTER      SUNNY     80  67  64 W6        30.18F
COATESVILLE    MOSUNNY   81  72  74 W5        30.20S
POTTSTOWN      PTSUNNY   79  70  74 VRB5      30.19S
BLUE BELL      MOSUNNY   81  70  69 N3        30.17F
DOYLESTOWN     MOSUNNY   78  68  71 SW5       30.17S
WILLOW GROVE   NOT AVBL
NORTH PHILA    MOSUNNY   83  67  58 VRB6      30.19S
PHILADELPHIA   PTSUNNY   79  69  71 W8        30.18R
$$


USA.gov is the U.S. government's official web portal to all federal, state and local government web resources and services.